Погода в Глазове

Россия / Удмуртская Республика     58°08′26″N   52°40′27″E
В апреле 2022 года жителям России запретили посещать сайт meteo.paraplan.net по решению Генеральной прокуратуры. Аудитория сайта уменьшилась в 10 раз. Владельцы сайта не видят смысла в поддержке погодного сервера в таких условиях. Сайт будет закрыт в октябре.
темп.,
°C
ветер,
м/с
пор.,
м/с
влажн.,
%
обл.,
%
осадки,
мм/ч
давл.,
гПа
погр.,
м
30 сентября, пт
пт3001:00+1вюв51286100 0.1 1023585
04:00+1вюв41190100 0.7 1024472
07:000вюв4993100 0.6 1026391
10:000вюв4892100 0.7 1027354
13:00+1вюв3890100 0.1 1028328
16:00+2вюв3889100 0.1 1028322
19:00+3вюв3891100 0.0 1028239
22:00+4юв399394 0.0 1028272
1 октября, сб
сб101:00+2ююв389511 0.0 1028260
04:00+1юв399737 0.0 1028231
07:00+1ююв299594 0.0 1028283
10:00+5ююв4783100 0.0 1027421
13:00+9ююв4672100 0.0 1026742
16:00+10ююв4772100 0.0 1024848
19:00+6юв3990100 0.0 1024254
22:00+5ююв2994100 0.0 1023241
2 октября, вс
вс201:00+5юв399499 0.0 1021231
04:00+5ююв41188100 0.0 1020312
07:00+5ююв41284100 0.0 1019351
10:00+8ююв51173100 0.0 1017389
13:00+13ююв51163100 0.0 1015687
16:00+13ююв61467100 0.0 1013828
19:00+12ю61577100 0.7 1013777
22:00+12ю61482100 1.5 1012763
3 октября, пн
пн301:00+12ю51391100 0.2 1012669
04:00+12ююз41195100 0.4 1013549
07:00+12ююз41097100 0.1 1014524
10:00+13ю3995100 0.1 1015570
13:00+12ю399197 0.6 1016404
16:00+16ю4982100 0.6 1016714
19:00+12ююв41089100 0.1 1019369
22:00+10ююв31188100 0.1 1019322
4 октября, вт
вт401:00+10ююв31186100 0.0 1020294
04:00+9ююв31183100 0.0 1022284
07:00+9ююв41374100 0.0 1023371
10:00+12ю41355100 0.0 1024581
13:00+15ю51242100 0.0 1025878
16:00+15ю51244100 0.0 10251097
19:00+11ююв4125699 0.0 1027490
22:00+10ююв3116196 0.0 1027379